Location: Bratislava
(48.1500°N, 17.1170°E)
Time: 20:38:52
(UTC+02:00)

ISS - Pass Details

Date: 28 March 2019
Orbit: 408 x 410 km, 51.6° (Epoch: 25 April)

Event Time Altitude Azimuth Distance (km) Brightness Sun altitude
Rises 19:18:32 0° 267° (W) 2,334 1.5 -11.1°
Reaches altitude 10° 19:20:40 10° 273° (W) 1,474 0.4 -11.5°
Maximum altitude 19:23:53 49° 350° (N) 537 -3.0 -12.0°
Enters shadow 19:26:36 14° 64° (ENE) 1,275 -1.7 -12.4°
